When you browse on this site, cookies collect data to enhance your experience and personalize the content and advertising you see.
Visit our Privacy Policy to learn more. By continuing to use the site, you agree to this use of cookies and data.
  • In Latvia
  • List of Countries
  • For 7 days
  • Water Temperature
  • Weather Map
  • Weather Widgets
  • user-avatar
    Login

    Hourly Weather Krasyukovskaya

    Today, 26 August, Monday

    Time Temperature Precipitation Wind Pressure Humidity
    00:00 +26°C° 0 mm 6 mps 763 mmHg 37%
    01:00 +26°C° 0 mm 5 mps 763 mmHg 37%
    02:00 +25°C° 0 mm 5 mps 763 mmHg 38%
    03:00 +25°C° 0 mm 3 mps 764 mmHg 38%
    04:00 +25°C° 0 mm 4 mps 764 mmHg 41%
    05:00 +23°C° 0 mm 4 mps 764 mmHg 44%
    06:00 +23°C° 0 mm 4 mps 764 mmHg 47%
    07:00 +25°C° 0 mm 5 mps 764 mmHg 46%
    08:00 +26°C° 0 mm 5 mps 765 mmHg 44%
    09:00 +27°C° 0 mm 5 mps 765 mmHg 43%
    10:00 +29°C° 0 mm 5 mps 765 mmHg 39%
    11:00 +30°C° 0 mm 5 mps 765 mmHg 34%
    12:00 +33°C° 0 mm 5 mps 765 mmHg 30%
    13:00 +33°C° 0 mm 5 mps 765 mmHg 29%
    14:00 +33°C° 0 mm 5 mps 764 mmHg 28%
    15:00 +34°C° 0 mm 5 mps 764 mmHg 27%
    16:00 +33°C° 0 mm 5 mps 764 mmHg 28%
    17:00 +32°C° 0 mm 5 mps 764 mmHg 30%
    18:00 +32°C° 0 mm 5 mps 764 mmHg 32%
    19:00 +29°C° 0 mm 5 mps 764 mmHg 34%
    20:00 +27°C° 0 mm 5 mps 764 mmHg 36%
    21:00 +26°C° 0 mm 5 mps 764 mmHg 38%
    22:00 +25°C° 0 mm 4 mps 764 mmHg 39%
    23:00 +23°C° 0 mm 4 mps 764 mmHg 40%

    Tomorrow, 27 August, Tuesday

    Time Temperature Precipitation Wind Pressure Humidity
    00:00 +22°C° 0 mm 4 mps 764 mmHg 40%
    01:00 +22°C° 0 mm 4 mps 764 mmHg 41%
    02:00 +21°C° 0 mm 4 mps 763 mmHg 42%
    03:00 +21°C° 0 mm 4 mps 763 mmHg 42%
    04:00 +20°C° 0 mm 4 mps 763 mmHg 43%
    05:00 +20°C° 0 mm 3 mps 763 mmHg 44%
    06:00 +19°C° 0 mm 3 mps 763 mmHg 45%
    07:00 +22°C° 0 mm 4 mps 763 mmHg 42%
    08:00 +25°C° 0 mm 4 mps 763 mmHg 38%
    09:00 +27°C° 0 mm 5 mps 763 mmHg 34%
    10:00 +28°C° 0 mm 4 mps 762 mmHg 31%
    11:00 +30°C° 0 mm 4 mps 762 mmHg 29%
    12:00 +32°C° 0 mm 4 mps 762 mmHg 26%
    13:00 +32°C° 0 mm 4 mps 761 mmHg 25%
    14:00 +33°C° 0 mm 4 mps 761 mmHg 25%
    15:00 +33°C° 0 mm 4 mps 761 mmHg 24%
    16:00 +32°C° 0 mm 5 mps 761 mmHg 24%
    17:00 +30°C° 0 mm 5 mps 761 mmHg 25%
    18:00 +29°C° 0 mm 6 mps 760 mmHg 26%
    19:00 +27°C° 0 mm 5 mps 761 mmHg 31%
    20:00 +25°C° 0 mm 4 mps 761 mmHg 35%
    21:00 +22°C° 0 mm 4 mps 761 mmHg 40%
    22:00 +22°C° 0 mm 4 mps 761 mmHg 42%
    23:00 +21°C° 0 mm 3 mps 761 mmHg 44%

    Day after tomorrow, 28 August, Wednesday

    Time Temperature Precipitation Wind Pressure Humidity
    00:00 +20°C° 0 mm 3 mps 762 mmHg 47%
    01:00 +20°C° 0 mm 3 mps 761 mmHg 51%
    02:00 +20°C° 0 mm 3 mps 761 mmHg 55%
    03:00 +19°C° 0 mm 3 mps 761 mmHg 59%
    04:00 +19°C° 0 mm 3 mps 761 mmHg 63%
    05:00 +19°C° 0 mm 3 mps 762 mmHg 67%
    06:00 +18°C° 0 mm 3 mps 762 mmHg 72%
    07:00 +20°C° 0 mm 3 mps 762 mmHg 65%
    08:00 +22°C° 0 mm 4 mps 762 mmHg 59%
    09:00 +25°C° 0 mm 4 mps 762 mmHg 53%
    10:00 +26°C° 0 mm 4 mps 762 mmHg 47%
    11:00 +27°C° 0 mm 4 mps 762 mmHg 42%
    12:00 +28°C° 0 mm 5 mps 761 mmHg 36%
    13:00 +29°C° 0 mm 5 mps 761 mmHg 34%
    14:00 +29°C° 0 mm 5 mps 761 mmHg 31%
    15:00 +29°C° 0 mm 5 mps 761 mmHg 29%
    16:00 +28°C° 0 mm 5 mps 761 mmHg 30%
    17:00 +27°C° 0 mm 6 mps 761 mmHg 31%
    18:00 +26°C° 0 mm 6 mps 761 mmHg 32%
    19:00 +24°C° 0 mm 6 mps 762 mmHg 37%
    20:00 +22°C° 0 mm 5 mps 762 mmHg 41%
    21:00 +20°C° 0 mm 5 mps 763 mmHg 46%
    22:00 +19°C° 0 mm 5 mps 763 mmHg 45%
    23:00 +17°C° 0 mm 5 mps 763 mmHg 43%

    29 August, Thursday

    Time Temperature Precipitation Wind Pressure Humidity
    00:00 +16°C° 0 mm 5 mps 764 mmHg 41%
    01:00 +15°C° 0 mm 5 mps 764 mmHg 44%
    02:00 +14°C° 0 mm 4 mps 764 mmHg 47%
    03:00 +13°C° 0 mm 4 mps 764 mmHg 50%
    04:00 +12°C° 0 mm 4 mps 765 mmHg 53%
    05:00 +12°C° 0 mm 4 mps 765 mmHg 55%
    06:00 +11°C° 0 mm 4 mps 765 mmHg 58%
    07:00 +13°C° 0 mm 5 mps 765 mmHg 53%
    08:00 +14°C° 0 mm 5 mps 765 mmHg 49%
    09:00 +16°C° 0 mm 6 mps 766 mmHg 44%
    10:00 +17°C° 0 mm 6 mps 765 mmHg 40%
    11:00 +20°C° 0 mm 6 mps 765 mmHg 35%
    12:00 +21°C° 0 mm 6 mps 765 mmHg 30%
    13:00 +22°C° 0 mm 6 mps 765 mmHg 28%
    14:00 +23°C° 0 mm 6 mps 764 mmHg 26%
    15:00 +23°C° 0 mm 6 mps 764 mmHg 24%
    16:00 +23°C° 0 mm 6 mps 764 mmHg 25%
    17:00 +22°C° 0 mm 6 mps 764 mmHg 26%
    18:00 +22°C° 0 mm 6 mps 764 mmHg 27%
    19:00 +20°C° 0 mm 5 mps 764 mmHg 30%
    20:00 +18°C° 0 mm 4 mps 764 mmHg 33%
    21:00 +17°C° 0 mm 4 mps 764 mmHg 36%
    22:00 +15°C° 0 mm 4 mps 764 mmHg 38%
    23:00 +15°C° 0 mm 4 mps 764 mmHg 40%

    30 August, Friday

    Time Temperature Precipitation Wind Pressure Humidity
    00:00 +14°C° 0 mm 4 mps 764 mmHg 41%
    01:00 +13°C° 0 mm 4 mps 764 mmHg 44%
    02:00 +13°C° 0 mm 4 mps 763 mmHg 47%
    03:00 +12°C° 0 mm 4 mps 763 mmHg 50%
    04:00 +12°C° 0 mm 4 mps 763 mmHg 51%
    05:00 +12°C° 0 mm 4 mps 763 mmHg 53%
    06:00 +11°C° 0 mm 4 mps 763 mmHg 55%
    07:00 +13°C° 0 mm 4 mps 763 mmHg 49%
    08:00 +17°C° 0 mm 4 mps 763 mmHg 43%
    09:00 +19°C° 0 mm 5 mps 763 mmHg 38%
    10:00 +20°C° 0 mm 5 mps 763 mmHg 33%
    11:00 +22°C° 0 mm 5 mps 763 mmHg 28%
    12:00 +23°C° 0 mm 5 mps 763 mmHg 23%
    13:00 +25°C° 0 mm 5 mps 762 mmHg 21%
    14:00 +25°C° 0 mm 5 mps 762 mmHg 20%
    15:00 +26°C° 0 mm 5 mps 762 mmHg 18%
    16:00 +25°C° 0 mm 5 mps 761 mmHg 21%
    17:00 +25°C° 0 mm 5 mps 761 mmHg 23%
    18:00 +23°C° 0 mm 4 mps 761 mmHg 26%
    19:00 +22°C° 0 mm 4 mps 761 mmHg 31%
    20:00 +20°C° 0 mm 3 mps 761 mmHg 37%
    21:00 +19°C° 0 mm 2 mps 762 mmHg 43%
    22:00 +18°C° 0 mm 2 mps 762 mmHg 47%
    23:00 +18°C° 0 mm 2 mps 762 mmHg 51%

    31 August, Saturday

    Time Temperature Precipitation Wind Pressure Humidity
    00:00 +18°C° 0 mm 2 mps 762 mmHg 55%
    01:00 +17°C° 0 mm 3 mps 762 mmHg 62%
    02:00 +17°C° 0 mm 4 mps 762 mmHg 69%
    03:00 +15°C° 0 mm 4 mps 762 mmHg 76%
    04:00 +14°C° 0 mm 4 mps 763 mmHg 78%
    05:00 +13°C° 0 mm 5 mps 763 mmHg 80%
    06:00 +12°C° 0 mm 5 mps 763 mmHg 82%
    07:00 +13°C° 0 mm 5 mps 763 mmHg 73%
    08:00 +15°C° 0 mm 5 mps 764 mmHg 65%
    09:00 +16°C° 0 mm 5 mps 764 mmHg 56%
    10:00 +19°C° 0 mm 5 mps 764 mmHg 45%
    11:00 +20°C° 0 mm 5 mps 764 mmHg 34%
    12:00 +22°C° 0 mm 5 mps 764 mmHg 23%
    13:00 +23°C° 0 mm 5 mps 763 mmHg 21%
    14:00 +25°C° 0 mm 5 mps 763 mmHg 19%
    15:00 +26°C° 0 mm 4 mps 763 mmHg 17%
    16:00 +25°C° 0 mm 4 mps 763 mmHg 18%
    17:00 +23°C° 0 mm 4 mps 763 mmHg 19%
    18:00 +23°C° 0 mm 4 mps 763 mmHg 20%
    19:00 +21°C° 0 mm 4 mps 763 mmHg 24%
    20:00 +19°C° 0 mm 3 mps 764 mmHg 28%
    21:00 +17°C° 0 mm 3 mps 764 mmHg 31%
    22:00 +16°C° 0 mm 3 mps 764 mmHg 33%
    23:00 +15°C° 0 mm 2 mps 764 mmHg 35%
    Show more